Flag for Seychelles Weather past 2 weeks in Victoria, Seychelles

Now
84 °F

Scattered clouds.


Feels Like: 91 °F
Forecast: 74 / 78 °F
Wind: 15 mph from Southeast

Location: National Airport

Current Time: Jul 29, 2014 at 11:39:44 AM

Latest Report: Jul 29, 2014 at 11:00 AM


Visibility: N/A

Pressure: 29.95 "Hg

Humidity: 70%

Dew point: 73 °F

Location of VictoriaLocation

Historic Weather in Victoria — Graph

°F

Victoria temperature yesterday

Maximum temperature yesterday: 84 °F (at 12:00 PM)
Minimum temperature yesterday: 79 °F (at 12:00 AM)
Average temperature yesterday: 80 °F

Past Weeks' High & Low Weather Summary

 TemperatureHumidityPressure
High86 °F (Jul 27, 2:00 PM)94% (Jul 27, 3:00 AM)30.01 "Hg (Jul 27, 3:00 AM)
Low75 °F (Jul 27, 3:00 AM)62% (Jul 18, 11:00 AM)29.86 "Hg (Jul 14, 2:00 PM)
Average80 °F79%29.92 "Hg
* Reported Jul 14 10:00 AM — Jul 29 10:00 AM, Victoria, Weather by CustomWeather, © 2014

Note: Actual official high and low records may vary slightly from our data, if they occured in-between our weather recording intervals... More about our weather records

Advertising

Victoria weather history for previous 24 hours

 ConditionsComfort  
Time TempWeatherWind HumidityBarometerVisibility
10:00 AM
Jul 29
82 °FScattered clouds.14 mph74%29.98 "HgN/A
9:00 AM82 °FScattered clouds.13 mph74%29.98 "HgN/A
8:00 AM81 °FScattered clouds.12 mph79%29.95 "HgN/A
7:00 AM79 °FScattered clouds.12 mph84%29.95 "HgN/A
6:00 AM79 °FPassing clouds.9 mph84%29.92 "HgN/A
5:00 AM79 °FPassing clouds.12 mph84%29.92 "HgN/A
4:00 AM79 °FPassing clouds.12 mph84%29.92 "HgN/A
3:00 AM79 °FPassing clouds.12 mph84%29.92 "HgN/A
2:00 AM79 °FPassing clouds.12 mph84%29.92 "HgN/A
1:00 AM79 °FPassing clouds.8 mph84%29.95 "HgN/A
12:00 AM79 °FPassing clouds.8 mph84%29.95 "HgN/A
11:00 PM
Jul 28
79 °FPassing clouds.8 mph84%29.98 "HgN/A
10:00 PM79 °FPassing clouds.8 mph84%29.98 "HgN/A
9:00 PM79 °FPassing clouds.9 mph89%29.98 "HgN/A
8:00 PM79 °FPassing clouds.7 mph84%29.95 "HgN/A
7:00 PM79 °FPassing clouds.6 mph84%29.95 "HgN/A
6:00 PM81 °FScattered clouds.6 mph79%29.92 "HgN/A
5:00 PM79 °FScattered clouds.10 mph84%29.92 "HgN/A
4:00 PM81 °FScattered clouds.9 mph74%29.89 "HgN/A
3:00 PM82 °FScattered clouds.12 mph70%29.89 "HgN/A
2:00 PM84 °FPassing clouds.10 mph70%29.92 "HgN/A
1:00 PM84 °FScattered clouds.12 mph70%29.92 "HgN/A
12:00 PM84 °FScattered clouds.12 mph66%29.95 "HgN/A
11:00 AM82 °FSprinkles. Broken clouds.14 mph74%29.95 "HgN/A
Weather by CustomWeather, © 2014

See weather overviewHow to use our weather pages